ECA606 WIII-WIMN

Flight info

Callsign ECA606
Flight time 1h 43m
Altitude 34000
Route GOMEL T10 AKPER
Aircraft B734/M-SDFGHIRWY/EB2

Departure

Time 2026-05-08 00:33
Airport Soekarno-Hatta International Airport (WIII)

Arrival

Time 2026-05-08 02:16
Airport Silangit Airport (WIMN)
Time Latitude Longitude Altitude Speed Heading
2026-05-08 00:13 -6.12801 106.66192 37 ft 0 kts 69°
2026-05-08 00:22 -6.12807 106.66178 15 ft 2 kts 69°
2026-05-08 00:22 -6.12813 106.66163 38 ft 2 kts 69°
2026-05-08 00:23 -6.12819 106.66147 35 ft 2 kts 72°
2026-05-08 00:23 -6.12821 106.66131 37 ft 2 kts 111°
2026-05-08 00:23 -6.12817 106.66123 37 ft 1 kts 153°
2026-05-08 00:23 -6.12810 106.66120 37 ft 0 kts 165°
2026-05-08 00:25 -6.12823 106.66124 37 ft 7 kts 165°
2026-05-08 00:25 -6.12883 106.66136 37 ft 9 kts 170°
2026-05-08 00:25 -6.12945 106.66151 37 ft 9 kts 159°
2026-05-08 00:26 -6.13003 106.66173 37 ft 9 kts 159°
2026-05-08 00:26 -6.13059 106.66195 37 ft 9 kts 156°
2026-05-08 00:26 -6.13113 106.66219 35 ft 8 kts 156°
2026-05-08 00:26 -6.13165 106.66243 36 ft 8 kts 159°
2026-05-08 00:27 -6.13217 106.66262 37 ft 8 kts 159°
2026-05-08 00:27 -6.13269 106.66277 38 ft 8 kts 181°
2026-05-08 00:27 -6.13307 106.66247 38 ft 7 kts 243°
2026-05-08 00:27 -6.13329 106.66201 35 ft 7 kts 244°
2026-05-08 00:28 -6.13349 106.66152 38 ft 9 kts 248°
2026-05-08 00:28 -6.13378 106.66080 38 ft 14 kts 248°
2026-05-08 00:28 -6.13419 106.65976 37 ft 18 kts 250°
2026-05-08 00:28 -6.13472 106.65841 36 ft 23 kts 248°
2026-05-08 00:29 -6.13531 106.65692 35 ft 23 kts 248°
2026-05-08 00:29 -6.13590 106.65546 37 ft 22 kts 248°
2026-05-08 00:29 -6.13643 106.65406 36 ft 21 kts 249°
2026-05-08 00:29 -6.13701 106.65271 36 ft 21 kts 246°
2026-05-08 00:30 -6.13757 106.65139 38 ft 20 kts 249°
2026-05-08 00:30 -6.13804 106.65008 36 ft 20 kts 249°
2026-05-08 00:30 -6.13854 106.64883 38 ft 19 kts 247°
2026-05-08 00:30 -6.13904 106.64765 36 ft 18 kts 247°
2026-05-08 00:31 -6.13948 106.64647 38 ft 18 kts 251°
2026-05-08 00:31 -6.13992 106.64534 36 ft 17 kts 248°
2026-05-08 00:31 -6.14036 106.64426 36 ft 16 kts 249°
2026-05-08 00:31 -6.14082 106.64323 37 ft 16 kts 226°
2026-05-08 00:32 -6.14179 106.64322 38 ft 15 kts 136°
2026-05-08 00:32 -6.14232 106.64405 40 ft 9 kts 101°
2026-05-08 00:32 -6.14218 106.64446 37 ft 9 kts 64°
2026-05-08 00:32 -6.14129 106.64668 37 ft 68 kts 69°
2026-05-08 00:33 -6.13868 106.65328 39 ft 132 kts 68°
2026-05-08 00:33 -6.13490 106.66372 58 ft 182 kts 73°
2026-05-08 00:33 -6.13067 106.67629 661 ft 186 kts 69°
2026-05-08 00:33 -6.12578 106.68830 1492 ft 186 kts 70°
2026-05-08 00:34 -6.12063 106.70028 2136 ft 195 kts 68°
2026-05-08 00:34 -6.11539 106.71341 2732 ft 207 kts 69°
2026-05-08 00:34 -6.11148 106.72755 3263 ft 218 kts 90°
2026-05-08 00:34 -6.11615 106.74297 3372 ft 245 kts 131°
2026-05-08 00:35 -6.12867 106.75359 4351 ft 234 kts 145°
2026-05-08 00:35 -6.14344 106.76056 5139 ft 237 kts 161°
2026-05-08 00:35 -6.15954 106.76461 5865 ft 241 kts 176°
2026-05-08 00:35 -6.17602 106.76127 6558 ft 247 kts 205°
2026-05-08 00:36 -6.19014 106.75122 7234 ft 253 kts 225°
2026-05-08 00:36 -6.19834 106.73577 7893 ft 259 kts 258°
2026-05-08 00:36 -6.20063 106.71776 8612 ft 262 kts 263°
2026-05-08 00:36 -6.20255 106.69934 9300 ft 265 kts 263°
2026-05-08 00:37 -6.20489 106.68062 9823 ft 279 kts 258°
2026-05-08 00:37 -6.20885 106.66098 10175 ft 293 kts 256°
2026-05-08 00:37 -6.21341 106.64019 10365 ft 317 kts 256°
2026-05-08 00:38 -6.22308 106.59484 11109 ft 345 kts 257°
2026-05-08 00:38 -6.22803 106.57097 11637 ft 352 kts 257°
2026-05-08 00:38 -6.23171 106.54628 12118 ft 362 kts 270°
2026-05-08 00:38 -6.22693 106.52170 12656 ft 368 kts 292°
2026-05-08 00:39 -6.21335 106.49981 13192 ft 372 kts 311°
2026-05-08 00:39 -6.19578 106.48044 13771 ft 376 kts 314°
2026-05-08 00:39 -6.17767 106.46106 14309 ft 379 kts 314°
2026-05-08 00:39 -6.16016 106.44222 15229 ft 368 kts 313°
2026-05-08 00:40 -6.14278 106.42326 15890 ft 369 kts 313°
2026-05-08 00:40 -6.12540 106.40408 16456 ft 371 kts 313°
2026-05-08 00:40 -6.10793 106.38475 17006 ft 374 kts 313°
2026-05-08 00:40 -6.08904 106.36713 17517 ft 376 kts 328°
2026-05-08 00:41 -6.06525 106.35634 18019 ft 377 kts 345°
2026-05-08 00:41 -6.03958 106.34932 18469 ft 381 kts 347°
2026-05-08 00:41 -6.01379 106.34282 18962 ft 382 kts 347°
2026-05-08 00:41 -5.98825 106.33644 19465 ft 383 kts 347°
2026-05-08 00:42 -5.96222 106.32983 19943 ft 385 kts 347°
2026-05-08 00:42 -5.93600 106.32304 20389 ft 387 kts 346°
2026-05-08 00:42 -5.91007 106.31625 20808 ft 391 kts 346°
2026-05-08 00:42 -5.88361 106.30926 21215 ft 394 kts 346°
2026-05-08 00:43 -5.85717 106.30226 21615 ft 398 kts 346°
2026-05-08 00:43 -5.83017 106.29509 22035 ft 400 kts 346°
2026-05-08 00:43 -5.80328 106.28797 22496 ft 400 kts 346°
2026-05-08 00:43 -5.77619 106.28079 22938 ft 402 kts 346°
2026-05-08 00:44 -5.74943 106.27351 23319 ft 404 kts 342°
2026-05-08 00:44 -5.72423 106.26068 23595 ft 410 kts 324°
2026-05-08 00:44 -5.70167 106.24289 23941 ft 411 kts 322°
2026-05-08 00:44 -5.67958 106.22486 24258 ft 412 kts 322°
2026-05-08 00:45 -5.65718 106.20652 24579 ft 413 kts 322°
2026-05-08 00:45 -5.63489 106.18840 24876 ft 415 kts 322°
2026-05-08 00:45 -5.61266 106.17007 25144 ft 417 kts 320°
2026-05-08 00:45 -5.59085 106.15065 25423 ft 419 kts 319°
2026-05-08 00:46 -5.56922 106.13075 25695 ft 421 kts 319°
2026-05-08 00:46 -5.54758 106.11079 25964 ft 422 kts 319°
2026-05-08 00:46 -5.52582 106.09087 26223 ft 424 kts 319°
2026-05-08 00:46 -5.50409 106.07112 26459 ft 426 kts 319°
2026-05-08 00:47 -5.48189 106.05106 26692 ft 427 kts 319°
2026-05-08 00:47 -5.45990 106.03122 26946 ft 428 kts 319°
2026-05-08 00:47 -5.43771 106.01120 27193 ft 429 kts 319°
2026-05-08 00:47 -5.41540 105.99110 27393 ft 432 kts 320°
2026-05-08 00:48 -5.39288 105.97083 27614 ft 433 kts 320°
2026-05-08 00:48 -5.37068 105.95085 27832 ft 434 kts 320°
2026-05-08 00:48 -5.34806 105.93050 28012 ft 436 kts 320°
2026-05-08 00:48 -5.32540 105.91009 28194 ft 438 kts 320°
2026-05-08 00:49 -5.30283 105.88977 28374 ft 440 kts 320°
2026-05-08 00:49 -5.28005 105.86926 28588 ft 440 kts 320°
2026-05-08 00:49 -5.25704 105.84853 28759 ft 442 kts 320°
2026-05-08 00:49 -5.23426 105.82803 29096 ft 438 kts 320°
2026-05-08 00:50 -5.21192 105.80792 29448 ft 434 kts 320°
2026-05-08 00:50 -5.18954 105.78778 29806 ft 431 kts 320°
2026-05-08 00:50 -5.16723 105.76773 30130 ft 427 kts 320°
2026-05-08 00:50 -5.14515 105.74787 30447 ft 424 kts 320°
2026-05-08 00:51 -5.12323 105.72816 30750 ft 420 kts 320°
2026-05-08 00:51 -5.10184 105.70892 31059 ft 416 kts 320°
2026-05-08 00:51 -5.08033 105.68958 31375 ft 412 kts 320°
2026-05-08 00:51 -5.05911 105.67050 31692 ft 407 kts 320°
2026-05-08 00:52 -5.03806 105.65157 32015 ft 403 kts 320°
2026-05-08 00:52 -5.01733 105.63292 32336 ft 398 kts 320°
2026-05-08 00:52 -4.99679 105.61446 32665 ft 393 kts 320°
2026-05-08 00:52 -4.97668 105.59638 32994 ft 388 kts 320°
2026-05-08 00:53 -4.95669 105.57841 33295 ft 384 kts 320°
2026-05-08 00:53 -4.93678 105.56052 33473 ft 383 kts 320°
2026-05-08 00:53 -4.91694 105.54269 33679 ft 381 kts 320°
2026-05-08 00:53 -4.89724 105.52499 33868 ft 380 kts 320°
2026-05-08 00:54 -4.87765 105.50741 33887 ft 385 kts 320°
2026-05-08 00:54 -4.83723 105.47113 33911 ft 395 kts 320°
2026-05-08 00:55 -4.79580 105.43392 33908 ft 405 kts 320°
2026-05-08 00:55 -4.75331 105.39577 33906 ft 415 kts 320°
2026-05-08 00:56 -4.71001 105.35688 33904 ft 425 kts 320°
2026-05-08 00:56 -4.66535 105.31678 33904 ft 434 kts 320°
2026-05-08 00:57 -4.61995 105.27602 33906 ft 442 kts 320°
2026-05-08 00:57 -4.57364 105.23445 33903 ft 450 kts 320°
2026-05-08 00:58 -4.52659 105.19222 33902 ft 457 kts 320°
2026-05-08 00:58 -4.47918 105.14968 33902 ft 463 kts 320°
2026-05-08 00:59 -4.43092 105.10639 33905 ft 468 kts 320°
2026-05-08 00:59 -4.38214 105.06263 33896 ft 471 kts 320°
2026-05-08 01:00 -4.33313 105.01867 33902 ft 473 kts 320°
2026-05-08 01:00 -4.28440 104.97497 33897 ft 473 kts 320°
2026-05-08 01:01 -4.23539 104.93103 33893 ft 471 kts 320°
2026-05-08 01:01 -4.18664 104.88735 33896 ft 470 kts 320°
2026-05-08 01:02 -4.13796 104.84376 33897 ft 467 kts 320°
2026-05-08 01:02 -4.08982 104.80064 33894 ft 466 kts 320°
2026-05-08 01:03 -4.04157 104.75742 33898 ft 464 kts 320°
2026-05-08 01:03 -3.99344 104.71431 33892 ft 463 kts 320°
2026-05-08 01:04 -3.94533 104.67124 33897 ft 463 kts 320°
2026-05-08 01:04 -3.89739 104.62832 33889 ft 463 kts 320°
2026-05-08 01:05 -3.84930 104.58528 33893 ft 464 kts 320°
2026-05-08 01:05 -3.80110 104.54214 33893 ft 465 kts 320°
2026-05-08 01:06 -3.75298 104.49908 33894 ft 467 kts 320°
2026-05-08 01:06 -3.70436 104.45558 33894 ft 468 kts 320°
2026-05-08 01:07 -3.65566 104.41201 33890 ft 469 kts 320°
2026-05-08 01:07 -3.60727 104.36873 33892 ft 470 kts 320°
2026-05-08 01:08 -3.55849 104.32509 33886 ft 470 kts 320°
2026-05-08 01:08 -3.50946 104.28126 33889 ft 470 kts 320°
2026-05-08 01:09 -3.46086 104.23780 33888 ft 471 kts 320°
2026-05-08 01:09 -3.41195 104.19408 33885 ft 471 kts 320°
2026-05-08 01:10 -3.36305 104.15038 33892 ft 470 kts 320°
2026-05-08 01:10 -3.31448 104.10696 33888 ft 470 kts 320°
2026-05-08 01:11 -3.26584 104.06351 33885 ft 470 kts 320°
2026-05-08 01:11 -3.21686 104.01974 33886 ft 470 kts 320°
2026-05-08 01:12 -3.16834 103.97640 33888 ft 470 kts 320°
2026-05-08 01:12 -3.11958 103.93285 33884 ft 470 kts 320°
2026-05-08 01:13 -3.07899 103.89660 33893 ft 470 kts 320°
2026-05-08 01:13 -3.03016 103.85299 33891 ft 470 kts 320°
2026-05-08 01:14 -2.98121 103.80929 33892 ft 470 kts 320°
2026-05-08 01:14 -2.93245 103.76575 33893 ft 471 kts 320°
2026-05-08 01:15 -2.88342 103.72198 33890 ft 471 kts 320°
2026-05-08 01:15 -2.83474 103.67854 33896 ft 472 kts 320°
2026-05-08 01:16 -2.78563 103.63470 33893 ft 472 kts 320°
2026-05-08 01:16 -2.73661 103.59096 33893 ft 473 kts 320°
2026-05-08 01:17 -2.68758 103.54721 33894 ft 473 kts 320°
2026-05-08 01:17 -2.63838 103.50332 33895 ft 473 kts 320°
2026-05-08 01:18 -2.58949 103.45971 33896 ft 473 kts 320°
2026-05-08 01:18 -2.54021 103.41574 33894 ft 473 kts 320°
2026-05-08 01:19 -2.49127 103.37208 33897 ft 473 kts 320°
2026-05-08 01:19 -2.44186 103.32801 33906 ft 473 kts 320°
2026-05-08 01:20 -2.39296 103.28442 33902 ft 473 kts 320°
2026-05-08 01:20 -2.34379 103.24061 33901 ft 473 kts 320°
2026-05-08 01:21 -2.29464 103.19680 33905 ft 472 kts 320°
2026-05-08 01:21 -2.24574 103.15321 33906 ft 472 kts 320°
2026-05-08 01:22 -2.19670 103.10950 33907 ft 472 kts 320°
2026-05-08 01:22 -2.14760 103.06574 33907 ft 472 kts 320°
2026-05-08 01:23 -2.09895 103.02239 33904 ft 472 kts 320°
2026-05-08 01:23 -2.04976 102.97855 33908 ft 472 kts 320°
2026-05-08 01:24 -2.00077 102.93490 33913 ft 472 kts 320°
2026-05-08 01:24 -1.95159 102.89108 33910 ft 472 kts 320°
2026-05-08 01:25 -1.90278 102.84760 33913 ft 473 kts 320°
2026-05-08 01:25 -1.85360 102.80379 33914 ft 473 kts 320°
2026-05-08 01:26 -1.80462 102.76016 33913 ft 473 kts 319°
2026-05-08 01:26 -1.75553 102.71643 33914 ft 473 kts 319°
2026-05-08 01:27 -1.70635 102.67262 33912 ft 473 kts 319°
2026-05-08 01:27 -1.65726 102.62889 33917 ft 472 kts 320°
2026-05-08 01:28 -1.60833 102.58533 33910 ft 472 kts 319°
2026-05-08 01:28 -1.55934 102.54173 33911 ft 472 kts 319°
2026-05-08 01:29 -1.51007 102.49789 33912 ft 471 kts 319°
2026-05-08 01:29 -1.46122 102.45440 33911 ft 471 kts 319°
2026-05-08 01:30 -1.41231 102.41086 33910 ft 471 kts 319°
2026-05-08 01:30 -1.36361 102.36751 33911 ft 471 kts 319°
2026-05-08 01:31 -1.31460 102.32388 33912 ft 470 kts 319°
2026-05-08 01:31 -1.26561 102.28028 33909 ft 470 kts 319°
2026-05-08 01:32 -1.21702 102.23703 33909 ft 471 kts 319°
2026-05-08 01:32 -1.16803 102.19343 33910 ft 471 kts 319°
2026-05-08 01:33 -1.11900 102.14979 33909 ft 471 kts 319°
2026-05-08 01:33 -1.06995 102.10615 33905 ft 472 kts 319°
2026-05-08 01:34 -1.02110 102.06268 33907 ft 473 kts 319°
2026-05-08 01:34 -0.97188 102.01888 33905 ft 473 kts 319°
2026-05-08 01:35 -0.92275 101.97517 33903 ft 473 kts 319°
2026-05-08 01:35 -0.87353 101.93138 33902 ft 473 kts 319°
2026-05-08 01:36 -0.82430 101.88757 33902 ft 473 kts 319°
2026-05-08 01:36 -0.77512 101.84381 33898 ft 472 kts 319°
2026-05-08 01:37 -0.72647 101.80054 33903 ft 471 kts 319°
2026-05-08 01:37 -0.67756 101.75702 33893 ft 470 kts 319°
2026-05-08 01:38 -0.62861 101.71347 33893 ft 469 kts 319°
2026-05-08 01:38 -0.57997 101.67021 33888 ft 468 kts 319°
2026-05-08 01:39 -0.53139 101.62699 33889 ft 467 kts 319°
2026-05-08 01:39 -0.48307 101.58401 33892 ft 467 kts 319°
2026-05-08 01:40 -0.43452 101.54083 33886 ft 468 kts 319°
2026-05-08 01:40 -0.38586 101.49754 33890 ft 469 kts 319°
2026-05-08 01:41 -0.33702 101.45410 33885 ft 470 kts 319°
2026-05-08 01:41 -0.28814 101.41061 33891 ft 471 kts 319°
2026-05-08 01:42 -0.23905 101.36695 33881 ft 473 kts 319°
2026-05-08 01:42 -0.18989 101.32323 33881 ft 474 kts 319°
2026-05-08 01:43 -0.14060 101.27939 33882 ft 475 kts 319°
2026-05-08 01:43 -0.09118 101.23543 33879 ft 475 kts 319°
2026-05-08 01:44 -0.04180 101.19151 33877 ft 475 kts 319°
2026-05-08 01:44 0.00760 101.14756 33874 ft 475 kts 319°
2026-05-08 01:45 0.05658 101.10401 33876 ft 474 kts 319°
2026-05-08 01:45 0.10581 101.06022 33874 ft 473 kts 319°
2026-05-08 01:46 0.15490 101.01655 33873 ft 472 kts 319°
2026-05-08 01:46 0.20389 100.97298 33880 ft 471 kts 319°
2026-05-08 01:47 0.25274 100.92953 33880 ft 469 kts 319°
2026-05-08 01:47 0.30147 100.88619 33881 ft 468 kts 319°
2026-05-08 01:48 0.37443 100.82129 33883 ft 467 kts 319°
2026-05-08 01:48 0.42296 100.77812 33889 ft 467 kts 319°
2026-05-08 01:49 0.47161 100.73484 33889 ft 468 kts 319°
2026-05-08 01:49 0.52005 100.69175 33889 ft 469 kts 319°
2026-05-08 01:50 0.56884 100.64836 33891 ft 470 kts 319°
2026-05-08 01:50 0.61787 100.60474 33891 ft 472 kts 319°
2026-05-08 01:51 0.66702 100.56101 33889 ft 473 kts 319°
2026-05-08 01:51 0.71628 100.51719 33894 ft 475 kts 319°
2026-05-08 01:52 0.76582 100.47312 33585 ft 478 kts 319°
2026-05-08 01:52 0.79060 100.45107 33351 ft 476 kts 319°
2026-05-08 01:52 0.81503 100.42933 33088 ft 475 kts 319°
2026-05-08 01:53 0.83982 100.40728 32851 ft 476 kts 319°
2026-05-08 01:53 0.86469 100.38515 32609 ft 478 kts 319°
2026-05-08 01:53 0.88953 100.36305 32372 ft 479 kts 319°
2026-05-08 01:53 0.91451 100.34082 32132 ft 480 kts 319°
2026-05-08 01:54 0.93906 100.31898 31906 ft 480 kts 319°
2026-05-08 01:54 0.96406 100.29673 31674 ft 480 kts 319°
2026-05-08 01:54 0.98900 100.27454 31435 ft 479 kts 319°
2026-05-08 01:54 1.01379 100.25248 31202 ft 477 kts 319°
2026-05-08 01:55 1.03852 100.23047 30971 ft 475 kts 319°
2026-05-08 01:55 1.06315 100.20855 30741 ft 472 kts 319°
2026-05-08 01:55 1.08766 100.18674 30506 ft 469 kts 319°
2026-05-08 01:55 1.11190 100.16517 30282 ft 467 kts 319°
2026-05-08 01:56 1.13609 100.14364 30079 ft 464 kts 319°
2026-05-08 01:56 1.16022 100.12217 29849 ft 464 kts 319°
2026-05-08 01:56 1.18425 100.10078 29552 ft 462 kts 319°
2026-05-08 01:56 1.20818 100.07948 29291 ft 459 kts 319°
2026-05-08 01:57 1.23199 100.05829 29033 ft 457 kts 319°
2026-05-08 01:57 1.25568 100.03720 28775 ft 455 kts 319°
2026-05-08 01:57 1.27135 100.02325 28611 ft 454 kts 319°
2026-05-08 01:57 1.30275 99.99531 28264 ft 450 kts 319°
2026-05-08 01:58 1.32596 99.97465 27907 ft 446 kts 319°
2026-05-08 01:58 1.34126 99.96102 27612 ft 443 kts 319°
2026-05-08 01:58 1.37163 99.93399 26988 ft 438 kts 320°
2026-05-08 01:58 1.39427 99.91383 26524 ft 435 kts 320°
2026-05-08 01:59 1.41681 99.89376 26045 ft 432 kts 320°
2026-05-08 01:59 1.43199 99.88025 25732 ft 430 kts 320°
2026-05-08 01:59 1.45428 99.86041 25247 ft 429 kts 320°
2026-05-08 01:59 1.47611 99.84097 24784 ft 427 kts 320°
2026-05-08 02:00 1.49862 99.82094 24296 ft 425 kts 320°
2026-05-08 02:00 1.52054 99.80142 23829 ft 424 kts 320°
2026-05-08 02:00 1.54243 99.78193 23327 ft 423 kts 320°
2026-05-08 02:00 1.56459 99.76220 22800 ft 421 kts 320°
2026-05-08 02:01 1.58616 99.74299 22326 ft 417 kts 320°
2026-05-08 02:01 1.60781 99.72371 21857 ft 414 kts 320°
2026-05-08 02:01 1.62925 99.70462 21397 ft 411 kts 320°
2026-05-08 02:01 1.65047 99.68572 20945 ft 409 kts 320°
2026-05-08 02:02 1.67177 99.66675 20485 ft 406 kts 320°
2026-05-08 02:02 1.69267 99.64813 20046 ft 403 kts 320°
2026-05-08 02:02 1.71372 99.62938 19582 ft 402 kts 320°
2026-05-08 02:02 1.73448 99.61090 19128 ft 400 kts 320°
2026-05-08 02:03 1.75508 99.59255 18678 ft 399 kts 320°
2026-05-08 02:03 1.77568 99.57406 18222 ft 398 kts 317°
2026-05-08 02:03 1.79477 99.55372 17646 ft 398 kts 311°
2026-05-08 02:03 1.81228 99.53236 17196 ft 396 kts 309°
2026-05-08 02:04 1.82892 99.51082 16747 ft 393 kts 305°
2026-05-08 02:04 1.84325 99.48782 16306 ft 390 kts 301°
2026-05-08 02:04 1.85682 99.46426 15962 ft 385 kts 300°
2026-05-08 02:04 1.86981 99.44127 15594 ft 380 kts 300°
2026-05-08 02:05 1.88279 99.41821 15230 ft 376 kts 300°
2026-05-08 02:05 1.89545 99.39571 14907 ft 373 kts 300°
2026-05-08 02:05 1.90813 99.37316 14580 ft 369 kts 300°
2026-05-08 02:05 1.92263 99.35238 14208 ft 365 kts 315°
2026-05-08 02:06 1.94280 99.33749 13956 ft 351 kts 333°
2026-05-08 02:06 1.96366 99.32643 13870 ft 332 kts 332°
2026-05-08 02:06 1.98340 99.31487 13574 ft 327 kts 329°
2026-05-08 02:06 2.00151 99.30160 13316 ft 323 kts 314°
2026-05-08 02:07 2.01592 99.28437 13135 ft 318 kts 309°
2026-05-08 02:07 2.02958 99.26724 12766 ft 319 kts 309°
2026-05-08 02:07 2.04539 99.25208 12412 ft 317 kts 331°
2026-05-08 02:07 2.06623 99.24562 12111 ft 310 kts
2026-05-08 02:08 2.08684 99.24955 11757 ft 306 kts 27°
2026-05-08 02:08 2.10546 99.25961 11422 ft 304 kts 31°
2026-05-08 02:08 2.12431 99.26978 11081 ft 304 kts 28°
2026-05-08 02:08 2.14323 99.27857 10885 ft 299 kts 24°
2026-05-08 02:09 2.16219 99.28590 10828 ft 284 kts 20°
2026-05-08 02:09 2.18041 99.29149 10715 ft 271 kts 16°
2026-05-08 02:09 2.19837 99.29551 10574 ft 258 kts 12°
2026-05-08 02:09 2.21563 99.29845 10485 ft 245 kts 10°
2026-05-08 02:10 2.23212 99.29793 10343 ft 233 kts 337°
2026-05-08 02:10 2.24381 99.28804 10223 ft 216 kts 295°
2026-05-08 02:10 2.24675 99.27385 9946 ft 207 kts 269°
2026-05-08 02:10 2.24732 99.25889 9435 ft 216 kts 270°
2026-05-08 02:11 2.24801 99.24412 9114 ft 209 kts 270°
2026-05-08 02:11 2.24867 99.23005 8839 ft 198 kts 270°
2026-05-08 02:11 2.24927 99.21684 8603 ft 191 kts 269°
2026-05-08 02:11 2.24986 99.20355 8357 ft 190 kts 269°
2026-05-08 02:12 2.25045 99.19051 8112 ft 185 kts 269°
2026-05-08 02:12 2.25101 99.17771 7886 ft 185 kts 269°
2026-05-08 02:12 2.25162 99.16489 7681 ft 183 kts 270°
2026-05-08 02:12 2.25216 99.15240 7426 ft 176 kts 269°
2026-05-08 02:13 2.25271 99.14012 7203 ft 177 kts 269°
2026-05-08 02:13 2.25326 99.12783 7004 ft 179 kts 269°
2026-05-08 02:13 2.25388 99.11521 6762 ft 184 kts 270°
2026-05-08 02:13 2.25443 99.10274 6541 ft 174 kts 269°
2026-05-08 02:14 2.25486 99.09101 6323 ft 162 kts 268°
2026-05-08 02:14 2.25542 99.07960 6125 ft 167 kts 270°
2026-05-08 02:14 2.25599 99.06795 5916 ft 169 kts 269°
2026-05-08 02:14 2.25651 99.05616 5697 ft 170 kts 270°
2026-05-08 02:15 2.25705 99.04431 5450 ft 170 kts 269°
2026-05-08 02:15 2.25757 99.03263 5260 ft 167 kts 269°
2026-05-08 02:15 2.25809 99.02092 5032 ft 169 kts 270°
2026-05-08 02:15 2.25904 99.00922 4813 ft 167 kts 271°
2026-05-08 02:16 2.25934 98.99813 4586 ft 157 kts 268°
2026-05-08 02:16 2.25969 98.98827 4623 ft 122 kts 274°
2026-05-08 02:16 2.26000 98.98130 4652 ft 79 kts 272°
2026-05-08 02:16 2.26014 98.97907 4657 ft 5 kts 284°
2026-05-08 02:17 2.26019 98.97887 4662 ft 0 kts 274°
2026-05-08 02:17 2.26018 98.97885 4659 ft 1 kts 251°
2026-05-08 02:17 2.26014 98.97885 4659 ft 0 kts 208°
2026-05-08 02:17 2.26011 98.97888 4659 ft 1 kts 150°
2026-05-08 02:18 2.26011 98.97902 4660 ft 6 kts 89°
2026-05-08 02:18 2.26010 98.97991 4658 ft 19 kts 93°
2026-05-08 02:18 2.26001 98.98160 4652 ft 28 kts 91°
2026-05-08 02:18 2.25994 98.98359 4641 ft 29 kts 92°
2026-05-08 02:19 2.25984 98.98563 4632 ft 29 kts 95°
2026-05-08 02:19 2.25974 98.98753 4628 ft 18 kts 92°
2026-05-08 02:19 2.26003 98.98794 4621 ft 6 kts 17°
2026-05-08 02:19 2.26048 98.98797 4621 ft 7 kts
2026-05-08 02:20 2.26093 98.98798 4621 ft 6 kts
2026-05-08 02:20 2.26126 98.98794 4618 ft 2 kts 329°
2026-05-08 02:20 2.26130 98.98779 4616 ft 2 kts 275°
2026-05-08 02:20 2.26131 98.98763 4620 ft 2 kts 275°
2026-05-08 02:21 2.26132 98.98748 4621 ft 2 kts 273°
2026-05-08 02:21 2.26133 98.98734 4623 ft 1 kts 277°
2026-05-08 02:21 2.26133 98.98733 4623 ft 0 kts 287°
2026-05-08 02:21 2.26138 98.98731 4619 ft 0 kts 327°
2026-05-08 02:22 2.26146 98.98732 4620 ft 3 kts 359°
2026-05-08 02:22 2.26156 98.98732 4623 ft 0 kts